Time[GMT],current_speed[cm/s](2m),current_direction[angular_degrees](2m),temperature[C](2m),current_u[cm/s](2m),current_v[cm/s](2m)
2011-08-23 23:00,32.26,88.7,18.75,32.26,0.71
2011-08-24 00:00,32.85,88.0,18.87,32.83,1.13
2011-08-24 01:00,48.69,93.3,18.94,48.61,-2.81
2011-08-24 02:00,54.85,115.8,18.62,49.38,-23.88
2011-08-24 03:00,47.51,123.5,18.72,39.60,-26.25
2011-08-24 04:00,30.21,134.1,18.65,21.70,-21.02
2011-08-24 05:00,22.88,154.8,18.62,9.73,-20.71
2011-08-24 06:00,7.63,236.8,18.59,-6.38,-4.18
2011-08-24 07:00,31.68,282.8,18.56,-30.89,7.03
2011-08-24 08:00,43.12,298.3,18.46,-37.97,20.43
2011-08-24 09:00,44.58,310.6,18.43,-33.85,29.01
2011-08-24 10:00,21.41,351.7,18.52,-3.09,21.19
2011-08-24 11:00,21.41,26.1,18.52,9.44,19.22
2011-08-24 12:00,32.56,76.4,18.52,31.65,7.64
2011-08-24 13:00,48.98,88.4,18.65,48.96,1.38
2011-08-24 14:00,58.66,109.5,18.52,55.30,-19.56
2011-08-24 15:00,48.39,123.5,18.62,40.34,-26.74
2011-08-24 16:00,36.66,133.4,18.81,26.64,-25.18
2011-08-24 17:00,25.52,164.7,18.97,6.74,-24.61
2011-08-24 18:00,22.88,274.4,19.07,-22.81,1.75
2011-08-24 19:00,51.03,289.5,18.91,-48.11,17.03
2011-08-24 20:00,56.90,305.7,18.91,-46.22,33.18
2011-08-24 21:00,49.86,307.8,19.07,-39.41,30.55
2011-08-24 22:00,36.08,318.3,18.97,-23.98,26.95
2011-08-24 23:00,26.10,20.9,19.07,9.30,24.39
2011-08-25 00:00,31.97,68.3,19.10,29.71,11.80
2011-08-25 01:00,40.18,94.0,18.94,40.08,-2.81
2011-08-25 02:00,60.42,104.6,18.75,58.48,-15.19
2011-08-25 03:00,49.86,123.2,18.87,41.73,-27.30
2011-08-25 04:00,49.27,132.7,18.72,36.22,-33.41
2011-08-25 05:00,29.33,160.8,18.56,9.64,-27.70
2011-08-25 06:00,21.12,207.6,18.62,-9.78,-18.72
2011-08-25 07:00,38.42,280.4,18.68,-37.80,6.91
2011-08-25 08:00,66.87,302.9,18.78,-56.17,36.28
2011-08-25 09:00,75.08,306.7,18.81,-60.18,44.90
2011-08-25 10:00,46.34,314.5,18.97,-33.07,32.46
2011-08-25 11:00,21.12,352.0,18.97,-2.92,20.91
2011-08-25 12:00,31.97,59.9,19.00,27.66,16.03
2011-08-25 13:00,46.63,87.0,19.00,46.57,2.46
2011-08-25 14:00,56.02,97.9,18.97,55.49,-7.68
2011-08-25 15:00,77.14,113.3,18.94,70.82,-30.57
2011-08-25 16:00,66.29,117.9,19.07,58.57,-31.04
2011-08-25 17:00,39.30,145.0,18.87,22.55,-32.19
2011-08-25 18:00,10.27,181.6,18.84,-0.28,-10.26
2011-08-25 19:00,27.86,275.1,18.94,-27.75,2.47
2011-08-25 20:00,63.06,291.6,18.94,-58.63,23.22
2011-08-25 21:00,56.02,311.6,19.10,-41.86,37.23
2011-08-25 22:00,46.05,316.2,19.13,-31.86,33.25
2011-08-25 23:00,34.02,331.3,19.16,-16.32,29.85
2011-08-26 00:00,10.85,27.9,19.16,5.08,9.59
2011-08-26 01:00,29.04,83.1,19.19,28.83,3.48
2011-08-26 02:00,48.98,96.8,19.16,48.63,-5.82
2011-08-26 03:00,60.71,108.8,19.03,57.48,-19.54
2011-08-26 04:00,59.83,120.4,19.00,51.62,-30.26
2011-08-26 05:00,46.93,121.4,19.00,40.04,-24.47
2011-08-26 06:00,26.69,131.3,19.00,20.06,-17.61
2011-08-26 07:00,2.93,98.9,18.91,2.90,-0.46
2011-08-26 08:00,18.77,312.4,18.87,-13.87,12.65
2011-08-26 09:00,31.97,324.3,18.87,-18.65,25.96
2011-08-26 10:00,35.20,319.7,18.81,-22.75,26.86
2011-08-26 11:00,18.77,329.2,18.87,-9.60,16.13
2011-08-26 12:00,12.91,46.9,18.87,9.42,8.82
2011-08-26 13:00,33.44,102.1,18.84,32.69,-7.01
2011-08-26 14:00,40.18,108.1,18.78,38.20,-12.47
2011-08-26 15:00,56.02,111.9,18.91,51.96,-20.93
2011-08-26 16:00,59.83,123.9,19.07,49.67,-33.37
2011-08-26 17:00,43.41,135.1,19.10,30.62,-30.77
2011-08-26 18:00,28.74,176.3,19.13,1.86,-28.68
2011-08-26 19:00,34.32,233.9,19.16,-27.74,-20.20
2011-08-26 20:00,43.99,243.4,19.32,-39.35,-19.67
2011-08-26 21:00,85.06,283.9,19.23,-82.58,20.39
2011-08-26 22:00,90.63,301.1,19.13,-77.60,46.81
2011-08-26 23:00,79.78,303.6,19.23,-66.48,44.10
2011-08-27 00:00,,,,,
2011-08-27 01:00,27.86,49.0,18.97,21.03,18.28
2011-08-27 02:00,53.38,83.1,19.07,53.00,6.40
2011-08-27 03:00,,,,,
2011-08-27 04:00,89.16,117.6,19.26,79.04,-41.26
2011-08-27 05:00,84.18,132.0,19.19,62.57,-56.31
2011-08-27 06:00,62.18,141.5,19.19,38.73,-48.65
2011-08-27 07:00,43.41,159.8,19.16,15.02,-40.73
2011-08-27 08:00,34.32,204.4,19.16,-14.18,-31.25
2011-08-27 09:00,48.10,255.0,19.10,-46.47,-12.42
2011-08-27 10:00,81.83,273.7,19.13,-81.66,5.25
2011-08-27 11:00,76.55,290.6,18.97,-71.68,26.88
2011-08-27 12:00,72.74,307.8,18.81,-57.49,44.56
2011-08-27 13:00,37.84,341.9,18.52,-11.76,35.96
2011-08-27 14:00,33.44,63.1,18.52,29.81,15.14
2011-08-27 15:00,57.78,95.4,18.87,57.52,-5.45
2011-08-27 16:00,,,,,
2011-08-27 17:00,83.00,117.6,19.32,73.58,-38.41
2011-08-27 18:00,78.90,129.2,19.35,61.17,-49.83
2011-08-27 19:00,59.25,141.8,19.45,36.62,-46.58
2011-08-27 20:00,39.01,154.8,19.55,16.59,-35.31
2011-08-27 21:00,34.02,231.5,19.55,-26.62,-21.19
2011-08-27 22:00,81.83,267.3,19.51,-81.74,-3.79
2011-08-27 23:00,79.78,283.2,19.26,-77.68,18.18
2011-08-28 00:00,62.77,293.0,19.03,-57.77,24.54
2011-08-28 01:00,29.92,319.4,19.00,-19.48,22.71
2011-08-28 02:00,21.41,35.6,18.91,12.48,17.40
2011-08-28 03:00,,,,,
2011-08-28 04:00,52.50,110.5,18.94,49.17,-18.42
2011-08-28 05:00,79.48,115.1,19.29,71.98,-33.72
2011-08-28 06:00,78.31,117.2,19.45,69.64,-35.81
2011-08-28 07:00,61.89,126.0,19.39,50.06,-36.38
2011-08-28 08:00,29.62,148.2,19.42,15.63,-25.16
2011-08-28 09:00,14.66,235.0,19.35,-12.01,-8.41
2011-08-28 10:00,74.20,278.6,19.35,-73.37,11.09
2011-08-28 11:00,78.60,302.2,19.13,-66.55,41.84
2011-08-28 12:00,62.18,315.2,18.94,-43.84,44.09
2011-08-28 13:00,57.49,330.3,18.87,-28.50,49.93
2011-08-28 14:00,61.59,24.4,19.23,25.44,56.10
2011-08-28 15:00,61.30,61.0,19.29,53.59,29.76
2011-08-28 16:00,,,,,
2011-08-28 17:00,93.86,88.0,19.07,93.80,3.22
2011-08-28 18:00,,,,,
2011-08-28 19:00,73.91,103.2,19.32,71.97,-16.82
2011-08-28 20:00,39.89,93.0,18.91,39.84,-2.06
2011-08-28 21:00,16.72,36.0,18.75,9.83,13.53
2011-08-28 22:00,9.09,293.7,18.52,-8.32,3.66
2011-08-28 23:00,53.67,296.5,18.62,-48.02,23.97
2011-08-29 00:00,59.83,310.2,18.97,-45.67,38.65
2011-08-29 01:00,53.67,332.7,19.00,-24.58,47.71
2011-08-29 02:00,40.77,21.2,18.87,14.76,38.00
2011-08-29 03:00,,,,,
2011-08-29 04:00,61.89,79.6,18.75,60.87,11.18
2011-08-29 05:00,84.47,85.9,18.72,84.26,6.01
2011-08-29 06:00,,,,,
2011-08-29 07:00,110.87,95.8,18.49,110.31,-11.14
2011-08-29 08:00,98.84,95.8,18.37,98.34,-9.93
2011-08-29 09:00,82.71,101.0,18.08,81.18,-15.84
2011-08-29 10:00,62.77,111.6,18.14,58.36,-23.09
2011-08-29 11:00,51.91,148.5,18.08,27.12,-44.27
2011-08-29 12:00,33.73,229.7,18.05,-25.73,-21.80
2011-08-29 13:00,51.33,252.9,18.14,-49.07,-15.06
2011-08-29 14:00,34.02,256.4,18.11,-33.08,-7.97
2011-08-29 15:00,21.41,218.5,18.17,-13.32,-16.76
2011-08-29 16:00,31.38,188.6,18.21,-4.69,-31.03
2011-08-29 17:00,31.38,160.5,18.37,10.50,-29.58
2011-08-29 18:00,25.22,139.0,18.49,16.54,-19.04
2011-08-29 19:00,33.44,131.3,18.59,25.13,-22.06
2011-08-29 20:00,16.42,130.2,18.68,12.54,-10.61
2011-08-29 21:00,4.11,57.1,18.72,3.45,2.23
2011-08-29 22:00,31.38,341.2,18.65,-10.12,29.71
2011-08-29 23:00,80.66,306.7,18.52,-64.65,48.23
2011-08-30 00:00,98.26,327.5,18.65,-52.83,82.84
2011-08-30 01:00,98.55,333.8,18.87,-43.51,88.42
2011-08-30 02:00,76.84,0.1,18.49,0.18,76.84
2011-08-30 03:00,56.90,39.2,18.08,35.93,44.12
2011-08-30 04:00,69.51,76.4,18.17,67.57,16.31
2011-08-30 05:00,77.14,91.5,18.14,77.11,-2.08
2011-08-30 06:00,107.64,106.0,18.30,103.49,-29.60
2011-08-30 07:00,104.71,116.9,17.67,93.41,-47.31
2011-08-30 08:00,,,,,
2011-08-30 09:00,72.45,134.4,17.95,51.72,-50.73
2011-08-30 10:00,46.93,146.4,17.92,25.97,-39.09
2011-08-30 11:00,66.87,200.5,18.27,-23.47,-62.62
2011-08-30 12:00,82.42,254.0,18.37,-79.22,-22.74
2011-08-30 13:00,86.52,267.0,18.24,-86.40,-4.53
2011-08-30 14:00,78.31,293.7,18.46,-71.70,31.50
2011-08-30 15:00,58.37,329.9,18.84,-29.24,50.51
2011-08-30 16:00,40.77,53.6,18.87,32.80,24.21
2011-08-30 17:00,51.62,77.1,18.84,50.32,11.50
2011-08-30 18:00,75.38,90.5,18.49,75.38,-0.65
2011-08-30 19:00,90.04,102.8,18.08,87.81,-19.95
2011-08-30 20:00,89.75,117.2,17.92,79.81,-41.04
2011-08-30 21:00,73.62,122.1,17.86,62.34,-39.16
2011-08-30 22:00,46.05,120.0,18.02,39.87,-23.04
2011-08-30 23:00,37.54,180.9,17.92,-0.56,-37.54
2011-08-31 00:00,46.63,257.2,18.05,-45.47,-10.37
2011-08-31 01:00,70.10,277.5,18.27,-69.49,9.20
2011-08-31 02:00,78.90,301.5,18.30,-67.31,41.17
2011-08-31 03:00,36.96,328.9,18.84,-19.10,31.64
2011-08-31 04:00,27.28,0.5,18.84,0.23,27.28
2011-08-31 05:00,38.42,76.8,18.81,37.40,8.79
2011-08-31 06:00,62.18,90.1,18.62,62.18,-0.15
2011-08-31 07:00,,,,,
2011-08-31 08:00,112.63,111.9,18.56,104.47,-42.08
2011-08-31 09:00,94.44,120.4,18.24,81.48,-47.76
2011-08-31 10:00,73.32,121.4,17.79,62.56,-38.24
2011-08-31 11:00,29.04,164.7,17.79,7.67,-28.00
2011-08-31 12:00,35.20,224.8,17.89,-24.80,-24.97
2011-08-31 13:00,71.86,278.2,17.92,-71.12,10.31
2011-08-31 14:00,85.06,292.7,18.05,-78.49,32.77
2011-08-31 15:00,77.72,316.6,18.52,-53.43,56.45
2011-08-31 16:00,26.40,328.5,18.56,-13.78,22.51
2011-08-31 17:00,34.61,63.4,18.68,30.95,15.49
2011-08-31 18:00,59.25,100.7,18.52,58.22,-10.99
2011-08-31 19:00,83.88,111.9,18.59,77.81,-31.34
2011-08-31 20:00,99.14,115.5,18.91,89.51,-42.61
2011-08-31 21:00,90.92,127.8,18.17,71.88,-55.68
2011-08-31 22:00,69.51,124.9,17.92,56.98,-39.82
2011-08-31 23:00,56.31,146.0,18.49,31.45,-46.71
2011-09-01 00:00,46.63,209.0,18.59,-22.60,-40.79
2011-09-01 01:00,79.78,251.5,18.91,-75.67,-25.28
2011-09-01 02:00,101.19,282.8,18.87,-98.67,22.45
2011-09-01 03:00,89.75,297.6,18.59,-79.55,41.56
2011-09-01 04:00,44.58,307.1,18.65,-35.57,26.88
2011-09-01 05:00,17.60,320.8,18.78,-11.12,13.64
2011-09-01 06:00,31.09,100.3,18.68,30.59,-5.58
2011-09-01 07:00,53.38,107.7,18.52,50.85,-16.25
2011-09-01 08:00,77.72,110.2,18.37,72.95,-26.82
2011-09-01 09:00,76.84,126.4,18.33,61.89,-45.55
2011-09-01 10:00,65.99,142.2,18.05,40.47,-52.13
2011-09-01 11:00,36.96,156.2,17.76,14.89,-33.82
2011-09-01 12:00,38.42,201.9,17.76,-14.36,-35.64
2011-09-01 13:00,83.59,259.6,17.89,-82.22,-15.07
2011-09-01 14:00,104.12,285.3,18.05,-100.44,27.44
2011-09-01 15:00,115.27,299.0,18.68,-100.82,55.87
2011-09-01 16:00,77.43,326.1,17.67,-43.23,64.24
2011-09-01 17:00,51.03,321.8,17.60,-31.53,40.13
2011-09-01 18:00,32.26,17.4,17.10,9.63,30.79
2011-09-01 19:00,46.34,97.5,17.73,45.94,-6.07
2011-09-01 20:00,68.34,105.3,18.37,65.93,-17.99
2011-09-01 21:00,73.91,116.5,18.21,66.14,-32.99
2011-09-01 22:00,67.17,141.5,18.24,41.83,-52.55
2011-09-01 23:00,,,,,
2011-09-02 00:00,43.12,201.9,18.30,-16.12,-39.99
2011-09-02 01:00,63.94,233.2,18.30,-51.23,-38.26
2011-09-02 02:00,96.50,274.4,18.37,-96.21,7.37
2011-09-02 03:00,107.93,291.6,17.73,-100.35,39.75
2011-09-02 04:00,90.92,321.5,17.16,-56.61,71.15
2011-09-02 05:00,70.98,334.9,17.03,-30.16,64.25
2011-09-02 06:00,29.92,342.9,16.97,-8.80,28.59
2011-09-02 07:00,46.05,78.5,17.10,45.13,9.15
2011-09-02 08:00,79.78,108.1,17.51,75.84,-24.75
2011-09-02 09:00,,,,,
2011-09-02 10:00,83.88,124.6,17.60,69.05,-47.63
2011-09-02 11:00,59.83,148.9,17.70,30.94,-51.21
2011-09-02 12:00,42.24,196.7,17.76,-12.12,-40.46
2011-09-02 13:00,43.41,224.8,17.67,-30.59,-30.80
2011-09-02 14:00,82.12,254.7,17.67,-79.21,-21.68
2011-09-02 15:00,108.52,278.6,17.57,-107.30,16.23
2011-09-02 16:00,107.64,307.4,16.62,-85.48,65.42
2011-09-02 17:00,62.47,325.7,17.00,-35.19,51.62
2011-09-02 18:00,41.94,337.3,17.19,-16.17,38.70
2011-09-02 19:00,31.09,66.2,17.41,28.45,12.53
2011-09-02 20:00,33.73,95.8,17.48,33.56,-3.39
2011-09-02 21:00,69.22,104.9,17.67,66.89,-17.81
2011-09-02 22:00,74.79,124.9,17.79,61.30,-42.84
2011-09-02 23:00,74.79,141.8,17.73,46.22,-58.80
2011-09-03 00:00,53.09,140.1,17.73,34.08,-40.71
2011-09-03 01:00,42.24,203.7,17.67,-16.98,-38.67
2011-09-03 02:00,56.90,237.8,17.57,-48.16,-30.31
2011-09-03 03:00,94.74,267.0,17.29,-94.61,-4.96
2011-09-03 04:00,91.80,291.3,17.35,-85.56,33.28
2011-09-03 05:00,75.96,330.3,17.63,-37.66,65.97
2011-09-03 06:00,34.90,5.4,17.63,3.29,34.75
2011-09-03 07:00,8.51,49.7,17.63,6.49,5.50
2011-09-03 08:00,45.46,94.7,17.70,45.31,-3.73
2011-09-03 09:00,71.57,111.2,17.67,66.71,-25.92
2011-09-03 10:00,86.82,117.2,17.60,77.21,-39.70
2011-09-03 11:00,74.20,133.7,17.60,53.61,-51.30
2011-09-03 12:00,67.75,141.8,17.79,41.87,-53.26
2011-09-03 13:00,48.39,163.3,17.79,13.93,-46.35
2011-09-03 14:00,46.63,208.6,17.79,-22.35,-40.93
2011-09-03 15:00,79.19,248.7,17.89,-73.79,-28.75
2011-09-03 16:00,87.99,270.2,17.76,-87.99,0.25
2011-09-03 17:00,91.80,302.9,17.76,-77.12,49.81
2011-09-03 18:00,58.95,319.4,17.89,-38.38,44.75
2011-09-03 19:00,25.52,352.4,17.92,-3.38,25.29
2011-09-03 20:00,22.29,79.2,17.89,21.90,4.16
2011-09-03 21:00,82.12,86.3,17.70,81.95,5.34
2011-09-03 22:00,,,,,
2011-09-03 23:00,,,,,
2011-09-04 00:00,98.84,120.0,18.05,85.58,-49.46
2011-09-04 01:00,73.32,136.6,17.92,50.42,-53.23
2011-09-04 02:00,47.22,171.7,17.89,6.81,-46.73
2011-09-04 03:00,45.75,238.5,17.79,-39.02,-23.90
2011-09-04 04:00,77.14,266.3,17.63,-76.98,-4.99
2011-09-04 05:00,78.31,280.7,17.60,-76.95,14.55
2011-09-04 06:00,68.63,300.4,17.57,-59.20,34.73
2011-09-04 07:00,48.39,297.6,17.51,-42.89,22.41
2011-09-04 08:00,25.81,281.8,17.32,-25.27,5.26
2011-09-04 09:00,6.45,37.4,17.29,3.92,5.13
2011-09-04 10:00,21.41,62.7,17.35,19.03,9.81
2011-09-04 11:00,59.83,85.9,17.35,59.68,4.26
2011-09-04 12:00,,,,,
2011-09-04 13:00,54.85,121.4,17.32,46.80,-28.60
2011-09-04 14:00,31.97,158.0,17.38,11.98,-29.64
2011-09-04 15:00,26.98,240.3,17.48,-23.43,-13.38
2011-09-04 16:00,68.05,284.9,17.57,-65.75,17.53
2011-09-04 17:00,79.78,286.7,17.63,-76.42,22.91
2011-09-04 18:00,68.63,312.4,17.79,-50.72,46.24
2011-09-04 19:00,65.41,331.3,16.15,-31.37,57.39
2011-09-04 20:00,46.93,353.5,16.15,-5.35,46.62
2011-09-04 21:00,36.66,34.9,16.62,21.00,30.05
2011-09-04 22:00,35.49,68.0,16.49,32.90,13.30
2011-09-04 23:00,73.03,101.4,15.86,71.59,-14.43
2011-09-05 00:00,75.96,122.5,16.97,64.08,-40.80
2011-09-05 01:00,50.74,137.6,17.19,34.21,-37.47
2011-09-05 02:00,27.86,180.9,17.38,-0.42,-27.86
2011-09-05 03:00,27.28,222.0,17.41,-18.25,-20.27
2011-09-05 04:00,49.57,263.1,17.16,-49.21,-5.93
2011-09-05 05:00,71.27,273.0,17.10,-71.18,3.70
2011-09-05 06:00,81.83,281.1,16.97,-80.31,15.70
2011-09-05 07:00,73.91,296.5,16.21,-66.13,33.01
2011-09-05 08:00,46.34,287.7,16.59,-44.14,14.12
2011-09-05 09:00,24.34,275.4,16.65,-24.23,2.31
2011-09-05 10:00,7.04,292.7,16.72,-6.50,2.71
2011-09-05 11:00,9.68,113.3,16.72,8.89,-3.84
2011-09-05 12:00,36.66,78.9,16.78,35.98,7.06
2011-09-05 13:00,60.71,110.2,16.97,56.99,-20.95
2011-09-05 14:00,36.66,133.0,16.91,26.80,-25.02
2011-09-05 15:00,14.08,138.7,17.06,9.30,-10.57
2011-09-05 16:00,14.08,221.6,17.10,-9.35,-10.52
2011-09-05 17:00,59.25,272.3,17.10,-59.20,2.35
2011-09-05 18:00,65.41,309.2,17.57,-50.69,41.33
2011-09-05 19:00,83.59,315.2,17.25,-58.94,59.28
2011-09-05 20:00,60.71,336.6,16.91,-24.10,55.73
2011-09-05 21:00,57.78,343.3,16.72,-16.65,55.33
2011-09-05 22:00,39.01,45.5,17.16,27.82,27.35
2011-09-05 23:00,38.72,91.9,17.00,38.69,-1.28
2011-09-06 00:00,46.34,105.3,17.54,44.71,-12.20
2011-09-06 01:00,58.07,106.7,17.73,55.63,-16.66
2011-09-06 02:00,31.97,105.6,17.54,30.79,-8.60
2011-09-06 03:00,19.06,95.4,17.73,18.98,-1.80
2011-09-06 04:00,7.04,324.0,17.63,-4.14,5.69
2011-09-06 05:00,31.68,304.6,17.70,-26.07,18.00
2011-09-06 06:00,72.15,301.1,17.29,-61.78,37.27
2011-09-06 07:00,84.47,295.1,16.78,-76.48,35.86
2011-09-06 08:00,64.82,306.4,16.75,-52.19,38.44
2011-09-06 09:00,36.96,304.6,16.87,-30.41,20.99
2011-09-06 10:00,18.18,296.9,16.72,-16.22,8.22
2011-09-06 11:00,5.28,238.9,16.62,-4.52,-2.73
2011-09-06 12:00,8.21,59.2,16.56,7.05,4.21
2011-09-06 13:00,68.05,79.6,17.54,66.93,12.29
2011-09-06 14:00,53.09,115.5,17.63,47.93,-22.82
2011-09-06 15:00,34.61,119.7,17.19,30.07,-17.13
2011-09-06 16:00,12.61,162.6,17.03,3.78,-12.03
2011-09-06 17:00,15.54,279.0,16.94,-15.36,2.42
2011-09-06 18:00,40.18,305.7,16.94,-32.64,23.43
2011-09-06 19:00,61.89,300.4,17.03,-53.38,31.31
2011-09-06 20:00,66.29,292.3,16.94,-61.32,25.16
2011-09-06 21:00,58.37,282.8,16.87,-56.91,12.95
2011-09-06 22:00,15.84,260.0,16.94,-15.60,-2.76
2011-09-06 23:00,28.74,179.8,16.75,0.10,-28.74
2011-09-07 00:00,24.34,163.3,16.46,7.01,-23.31
2011-09-07 01:00,21.41,198.8,16.11,-6.89,-20.27
2011-09-07 02:00,39.60,115.5,16.24,35.75,-17.02
2011-09-07 03:00,26.98,102.1,16.37,26.38,-5.65
2011-09-07 04:00,17.60,183.7,16.18,-1.13,-17.56
2011-09-07 05:00,26.98,239.6,16.08,-23.27,-13.67
2011-09-07 06:00,71.27,281.4,16.21,-69.86,14.10
2011-09-07 07:00,92.98,292.0,16.34,-86.23,34.77
2011-09-07 08:00,111.45,305.7,16.62,-90.54,64.99
2011-09-07 09:00,92.39,314.1,16.78,-66.34,64.31
2011-09-07 10:00,58.07,319.7,16.65,-37.53,44.31
2011-09-07 11:00,31.09,291.3,16.59,-28.97,11.27
2011-09-07 12:00,21.12,261.0,16.65,-20.86,-3.30
2011-09-07 13:00,8.80,176.3,16.62,0.57,-8.78
2011-09-07 14:00,38.72,96.5,16.75,38.47,-4.36
2011-09-07 15:00,45.46,121.4,16.75,38.79,-23.71
2011-09-07 16:00,42.53,132.3,17.10,31.44,-28.64
2011-09-07 17:00,34.02,172.1,16.97,4.70,-33.70
2011-09-07 18:00,44.29,236.4,16.65,-36.89,-24.50
2011-09-07 19:00,67.75,267.7,16.59,-67.70,-2.72
2011-09-07 20:00,77.72,297.6,16.75,-68.89,35.99
2011-09-07 21:00,78.90,301.5,17.00,-67.31,41.17
2011-09-07 22:00,56.90,308.5,17.10,-44.54,35.41
2011-09-07 23:00,37.25,307.4,16.97,-29.58,22.64
2011-09-08 00:00,11.73,226.9,16.97,-8.57,-8.01
2011-09-08 01:00,11.15,166.1,16.94,2.68,-10.82
2011-09-08 02:00,24.34,161.2,16.94,7.86,-23.04
2011-09-08 03:00,30.80,103.5,16.91,29.95,-7.19
2011-09-08 04:00,29.04,85.2,16.91,28.94,2.42
2011-09-08 05:00,25.22,84.5,17.54,25.11,2.41
2011-09-08 06:00,10.27,73.3,18.11,9.83,2.96
2011-09-08 07:00,7.33,280.0,18.21,-7.22,1.27
2011-09-08 08:00,45.75,297.6,17.92,-40.55,21.19
2011-09-08 09:00,59.83,309.5,17.48,-46.14,38.09
2011-09-08 10:00,41.06,324.0,17.29,-24.16,33.20
2011-09-08 11:00,14.66,347.1,17.41,-3.27,14.30
2011-09-08 12:00,12.61,159.1,17.44,4.51,-11.78
2011-09-08 13:00,41.65,154.8,17.16,17.71,-37.70
2011-09-08 14:00,53.38,161.2,17.13,17.23,-50.52
2011-09-08 15:00,43.70,146.4,17.22,24.19,-36.40
2011-09-08 16:00,41.94,137.6,17.82,28.28,-30.98
2011-09-08 17:00,34.61,140.4,18.52,22.05,-26.67
2011-09-08 18:00,25.81,203.0,17.98,-10.09,-23.76
2011-09-08 19:00,38.13,259.3,17.32,-37.46,-7.10
2011-09-08 20:00,58.66,275.4,17.73,-58.40,5.56
2011-09-08 21:00,84.47,285.3,17.57,-81.48,22.26
2011-09-08 22:00,92.10,295.5,17.35,-83.14,39.61
2011-09-08 23:00,60.42,306.4,17.48,-48.65,35.83
2011-09-09 00:00,32.85,306.4,17.63,-26.45,19.48
2011-09-09 01:00,,,,,
2011-09-09 02:00,19.94,100.0,17.35,19.64,-3.46
2011-09-09 03:00,33.73,95.4,17.22,33.58,-3.18
2011-09-09 04:00,51.03,89.8,17.29,51.03,0.19
2011-09-09 05:00,53.97,99.3,17.00,53.26,-8.71
2011-09-09 06:00,51.33,121.1,17.95,43.96,-26.50
2011-09-09 07:00,28.74,147.8,17.79,15.32,-24.32
2011-09-09 08:00,28.16,225.9,17.73,-20.21,-19.61
2011-09-09 09:00,53.09,274.4,17.48,-52.93,4.05
2011-09-09 10:00,78.60,294.4,17.16,-71.57,32.50
2011-09-09 11:00,75.96,298.3,17.10,-66.89,36.00
2011-09-09 12:00,45.17,287.4,16.78,-43.10,13.50
2011-09-09 13:00,28.16,218.8,16.68,-17.65,-21.94
2011-09-09 14:00,17.01,237.1,16.53,-14.28,-9.24
2011-09-09 15:00,38.72,176.3,16.68,2.51,-38.63
2011-09-09 16:00,44.58,156.9,16.56,17.46,-41.02
2011-09-09 17:00,51.62,164.7,16.49,13.64,-49.79
2011-09-09 18:00,37.54,186.8,16.49,-4.47,-37.28
2011-09-09 19:00,40.48,204.4,16.65,-16.73,-36.86
2011-09-09 20:00,42.53,230.1,16.11,-32.62,-27.29
2011-09-09 21:00,73.03,262.8,16.53,-72.45,-9.18
2011-09-09 22:00,95.32,287.4,16.65,-90.97,28.49
2011-09-09 23:00,98.55,294.1,16.46,-89.98,40.19
2011-09-10 00:00,52.79,307.8,16.59,-41.73,32.34
2011-09-10 01:00,12.03,355.2,15.96,-1.00,11.98
2011-09-10 02:00,29.92,144.3,15.96,17.46,-24.29
2011-09-10 03:00,47.51,153.4,16.34,21.25,-42.50
2011-09-10 04:00,76.84,132.7,16.27,56.49,-52.10
2011-09-10 05:00,99.14,124.6,16.34,81.60,-56.29
2011-09-10 06:00,78.02,129.5,16.30,60.18,-49.65
2011-09-10 07:00,60.42,133.4,16.27,43.91,-41.50
2011-09-10 08:00,38.42,151.0,16.34,18.65,-33.59
2011-09-10 09:00,43.99,204.1,16.37,-17.94,-40.17
2011-09-10 10:00,54.85,232.9,16.37,-43.74,-33.09
2011-09-10 11:00,62.77,258.9,16.43,-61.59,-12.07
2011-09-10 12:00,63.65,272.3,16.40,-63.60,2.52
2011-09-10 13:00,34.61,259.3,16.30,-34.00,-6.45
2011-09-10 14:00,34.90,207.2,16.34,-15.97,-31.04
2011-09-10 15:00,41.36,177.0,16.34,2.17,-41.30
2011-09-10 16:00,68.63,168.9,16.43,13.21,-67.35
2011-09-10 17:00,79.19,154.5,16.49,34.11,-71.47
2011-09-10 18:00,67.46,161.2,16.43,21.78,-63.85
2011-09-10 19:00,55.73,173.5,16.56,6.34,-55.37
2011-09-10 20:00,35.49,193.9,16.49,-8.50,-34.46
2011-09-10 21:00,46.05,224.5,16.46,-32.25,-32.87
2011-09-10 22:00,76.84,266.6,16.46,-76.71,-4.50
2011-09-10 23:00,99.43,293.4,16.37,-91.27,39.43
2011-09-11 00:00,81.24,292.0,16.18,-75.35,30.38
2011-09-11 01:00,40.48,307.4,16.43,-32.14,24.60
2011-09-11 02:00,11.15,119.7,16.37,9.68,-5.52
2011-09-11 03:00,48.69,131.6,16.34,36.39,-32.34
2011-09-11 04:00,63.35,141.5,16.30,39.46,-49.56
2011-09-11 05:00,95.62,138.0,16.08,64.03,-71.01
2011-09-11 06:00,94.44,136.6,16.15,64.95,-68.57
2011-09-11 07:00,85.06,136.9,16.30,58.11,-62.11
2011-09-11 08:00,65.41,137.3,16.27,44.39,-48.03
2011-09-11 09:00,47.22,166.8,16.21,10.79,-45.97
2011-09-11 10:00,45.17,222.0,16.24,-30.22,-33.57
2011-09-11 11:00,81.83,266.6,15.83,-81.69,-4.79
2011-09-11 12:00,89.46,287.0,15.83,-85.53,26.21
2011-09-11 13:00,47.51,305.3,16.11,-38.77,27.47
2011-09-11 14:00,11.15,343.6,16.15,-3.15,10.69
2011-09-11 15:00,20.53,118.6,16.11,18.02,-9.83
2011-09-11 16:00,52.21,129.5,16.15,40.27,-33.22
2011-09-11 17:00,67.46,128.8,16.43,52.56,-42.29
2011-09-11 18:00,76.26,153.4,16.75,34.11,-68.20
2011-09-11 19:00,66.87,150.6,16.46,32.81,-58.27
2011-09-11 20:00,45.46,156.2,16.62,18.32,-41.61
2011-09-11 21:00,30.80,177.7,16.62,1.24,-30.77
2011-09-11 22:00,45.75,212.8,16.62,-24.82,-38.44
2011-09-11 23:00,54.85,237.8,16.65,-46.42,-29.22
2011-09-12 00:00,81.83,278.6,15.99,-80.91,12.23
2011-09-12 01:00,64.23,290.6,15.86,-60.14,22.55
2011-09-12 02:00,40.77,341.9,16.27,-12.67,38.75
2011-09-12 03:00,16.13,84.9,16.30,16.07,1.44
2011-09-12 04:00,45.17,128.8,16.11,35.19,-28.31
2011-09-12 05:00,63.35,138.7,15.83,41.84,-47.57
2011-09-12 06:00,86.82,141.1,15.77,54.49,-67.59
2011-09-12 07:00,88.28,134.8,15.89,62.65,-62.20
2011-09-12 08:00,69.81,140.4,15.93,44.48,-53.80
2011-09-12 09:00,51.33,142.5,15.99,31.23,-40.74
2011-09-12 10:00,33.44,173.1,16.02,4.01,-33.20
2011-09-12 11:00,32.85,238.5,16.05,-28.01,-17.16
2011-09-12 12:00,68.63,267.7,16.05,-68.58,-2.76
2011-09-12 13:00,48.69,273.0,16.15,-48.62,2.53
2011-09-12 14:00,24.64,288.8,16.11,-23.32,7.94
2011-09-12 15:00,11.73,120.7,16.34,10.08,-6.00
2011-09-12 16:00,41.65,159.8,16.11,14.41,-39.08
2011-09-12 17:00,62.47,160.5,16.68,20.89,-58.88
2011-09-12 18:00,66.58,156.2,16.62,26.82,-60.94
2011-09-12 19:00,79.48,144.3,16.68,46.40,-64.54
2011-09-12 20:00,68.34,146.0,16.65,38.17,-56.69
2011-09-12 21:00,58.07,152.0,16.59,27.24,-51.29
2011-09-12 22:00,38.42,160.5,16.62,12.85,-36.21
2011-09-12 23:00,42.24,239.9,16.62,-36.55,-21.17
2011-09-13 00:00,82.42,271.9,16.68,-82.37,2.76
2011-09-13 01:00,72.45,278.2,16.72,-71.70,10.39
2011-09-13 02:00,49.86,308.1,16.34,-39.22,30.79
2011-09-13 03:00,17.60,23.7,16.49,7.07,16.12
2011-09-13 04:00,15.54,119.0,16.49,13.60,-7.53
2011-09-13 05:00,21.70,139.7,16.34,14.03,-16.56
2011-09-13 06:00,34.02,159.4,16.37,11.97,-31.85
2011-09-13 07:00,52.21,140.4,16.78,33.26,-40.24
2011-09-13 08:00,54.26,154.5,16.43,23.37,-48.97
2011-09-13 09:00,39.30,154.8,16.56,16.71,-35.57
2011-09-13 10:00,36.08,158.4,16.62,13.31,-33.53
2011-09-13 11:00,38.13,219.2,16.62,-24.09,-29.56
2011-09-13 12:00,75.96,262.8,16.65,-75.36,-9.55
2011-09-13 13:00,77.14,299.7,16.49,-67.01,38.21
2011-09-13 14:00,64.53,319.7,16.68,-41.70,49.24
2011-09-13 15:00,31.68,345.7,16.81,-7.82,30.70
2011-09-13 16:00,9.09,68.0,16.59,8.43,3.41
2011-09-13 17:00,22.88,139.4,16.72,14.90,-17.36
2011-09-13 18:00,33.14,145.0,16.94,19.01,-27.15